Погода в Сухане

Погода в Сухане : погода сейчас, прогноз погоды и архив. Всё, что Вы хотите узнать о погоде в Сухане!

Поиск расширенной информации на нашем сайте:

Другие новости

Новости СМИ2

Главная страница сайта

Новости сайта

03.07.2017

Напоминаем, что на нашем специализированном сайте Метеоцентр.Азия вы можете получить высокодетализированные автоматические прогнозы погоды по пунктам России, СНГ и мира в авиационном формате (включающие направление и скорость ветра, видимость, явления погоды, количество и форму облачности, нижнюю и верхнюю границу облачности).


Погода в Сухане - сегодня

Время (UTC), дата Ветер
(°,м/с) 
Видим.   Явления Облачность Т
(°С)
Тd
(°С)
f(%) Тe
(°С)
Pmin
(гПа)
dP
(гПа)
Po
(мм)
O2
(г/м3)
Тmin Tmax R s Состояние
почвы
09 16.04.18 тихо ()   20000 м    1/1 600 м 
[Cu hum]
+2.3 -10.2 39 +2  1003.4  0.1  745  299           
12 16.04.18 тихо ()   20000 м    3/0 верхняя 
[Ci fib]
+0.6 -13.5 34 +1  1004.2  0.7  746  301    +2.8       
15 16.04.18 360 (С) 20000 м    8/8 1000 м 
[Sc]
-7.4 -13.9 60 -9  1004.8  0.4  746  309           
18 16.04.18 090 (В) 20000 м    3/3 1000 м 
[Sc]
-10.1 -15.4 65 -10  1004.9  -0.1  746  314           
21 16.04.18 тихо ()   20000 м    3/3 1000 м 
[Sc]
-14.3 -17.8 75 -14  1005.6  0.5  747  319           
00 17.04.18 тихо ()   20000 м    ясно 
-9.3 -14.9 64 -9  1005.8  0.4  747  313  -15.1      25  равномерный
мокрый или
старый снег
100% 
03 17.04.18 тихо ()   20000 м    ясно 
-0.4 -10.1 48 -0  1004.9  -0.5  746  302           
06 17.04.18 180 (Ю) 20000 м    1/0 
[Cu hum]
+3.7 -8.7 40 +3  1004.2  -0.6  746  297           
09 17.04.18 тихо ()   20000 м    1/1 600 м 
[Cu hum]
+4 -11.4 32 +4  1003.8  -0.4  746  297           
12 17.04.18 080 (В) 20000 м    ясно 
+2 -11.9 35 +3  1003.8  -0.1  746  299    +4.7       
15 17.04.18 360 (С) 20000 м    ясно 
-7.7 -14.3 59 -7  1004.1  -0.1  746  310           
18 17.04.18 350 (С) 20000 м    3/0 средняя 
[Ac trans]
-12.1 -15.6 75 -12  1003.8  -0.3  745  316           
21 17.04.18 тихо ()   20000 м    3/0 средняя 
[Ac trans]
-16.5 -18.4 85 -17  1004  0.8  745  321           
00 18.04.18 тихо ()   20000 м    ясно 
-11.3 -15.7 70 -11  1003.3  -0.5  745  314  -16.5      25  равномерный
мокрый или
старый снег
100% 
03 18.04.18 тихо ()   20000 м    ясно 
+0.5 -9.2 48 +1  1001.4  -1.5  744  300           
06 18.04.18 150 (ЮВ) 20000 м    1/1 600 м 
[Cu hum]
+4.9 -9.6 34 +3  998.7  -2.5  742  295           
09 18.04.18 150 (ЮВ) 20000 м    3/0 верхняя 
[Ci sp]
+4.8 -8.7 37 +3  999.3  0.6  742  295           
12 18.04.18 150 (ЮВ) 20000 м    4/0 средняя, верхняя 
[Ac As|Ci sp]
+3.4 -9.8 37 +4  1000.2  0.8  743  297    +5.6       
15 18.04.18 150 (ЮВ) 5{10}  20000 м    9/9 1000 м 
[Sc]
+1.2 -9 46 -2  1000.7  0.4  743  299           
18 18.04.18 090 (В) 20000 м    10/10 1000 м 
[Sc]
-0.2 -8.8 52 -3  1001  0.3  744  301           
21 18.04.18 360 (С) 20000 м    9/8 1000 м верхняя 
[Sc|Cs]
-1.2 -9.2 54 -2  1000.3  -0.7  743  302           
00 19.04.18 080 (В) 20000 м    10/10 1000 м 
[Sc]
-2.3 -10 55 -5  998.9  -1.3  742  302  -2.5      23  равномерный
мокрый или
старый снег
100% 
15 19.04.18 160 (Ю) 20000 м    4/4 1000 м 
[Sc]
-1.9 -6.5 71 -5  1000.3  1.8  743  302           
18 19.04.18 360 (С) 20000 м    4/4 1000 м 
[Sc]
-7.1 -7.6 96 -7  1002.3  1.8  744  309           
21 19.04.18 360 (С) 20000 м    5/5 1000 м 
[Sc]
-13 -13.6 95 -13  1004.1  1.4  745  317           
Время (UTC), дата Ветер
(°,м/с) 
Видим.   Явления Облачность Т
(°С)
Тd
(°С)
f(%) Тe
(°С)
Pmin
(гПа)
dP
(гПа)
Po
(мм)
O2
(г/м3)
Тmin Tmax R s Состояние
почвы

Для получения пояснительной информации подведите курсор к названию столбца.

ПОГОДА в Сухане - архив

Всё, что Вы хотите узнать о погоде в Сухане - удобно и подробно!

Выберите нужную дату (начиная с 1 января 2015* года) и нажмите кнопку "Найти".
Будут отображены архивные сводки погоды по пункту Сухана, начиная с указанной даты.


Отображать данные в формате CSV (для использования в таблицах Excel)


Внимание! Наш архив погоды предназначен исключительно для личного некоммерческого использования в познавательных целях. Если Вам необходимы официальные справки о состоянии погоды (для производственных, юридических, коммерческих и т.п. целей), обращайтесь в органы Росгидромета.

*Примечание: данная дата относится к архиву по метеостанциям СССР (Россия, СНГ, Балтия).
Архив по метеостанциям Зарубежной Европы и Азии (кроме Китая) хранится 10 дней, по другим регионам земного шара (Китай, Африка, Америка, Австралия, Океания) - 1 день.

Сухана - район местоположения метеостанции


Название, широта, долгота, высота метеостанции:
Сухана 68.62°ш. 118.33°д. 77 м над ур. моря [Российская Федерация]

Дополнительная информация

В oтличие oт бoльшинства пoгoдных сайтoв мы публикуем пoдрoбную метеoинфoрмацию в детальнoм прoфессиoнальнoм фoрмате.

Характеристики температуры и влажнoсти вoздуха измеряются на высoте 2 м в тени вдали oт зданий и деревьев.
Скoрoсть ветра измеряется на высoте 10 м (на урoвне рoста челoвека скoрoсть ветра ниже в 1.5-2 раза). Если метеoстанция нахoдится в гoрoде или в лесу, тo скoрoсть ветра занижена на 2-4 м/с пo сравнению с oткрытым местoм. Скoрoсть ветра над акватoриями крупных рек и oзёр, а также на вершинах хoлмoв на 2-5 м/с выше, чем в oбычных услoвиях.
Атмoсфернoе давление в разных тoчках местнoсти мoжет значительнo oтличаться oт давления на метеoстанции, в зависимoсти oт услoвий рельефа (при пoдъёме на 10 м давление пoнижается примернo на 1 мм рт.ст.).